Location: Dehesa de la Cepeda
(40.6574°N, 4.3013°W)
Time: 02:57:44
(UTC+00:00)

Courier 1B - Pass Details

Date: 01 August 2021
Orbit: 963 x 1209 km, 28.3° (Epoch: 17 September)

Event Time Altitude Azimuth Distance (km) Brightness Sun altitude
Rises 18:37:10 0° 225° (SW) 4,095 11.2 9.0°
Reaches altitude 10° 18:40:39 10° 212° (SSW) 3,138 10.4 8.4°
Maximum altitude 18:46:32 23° 163° (SSE) 2,279 9.2 7.3°
Drops below altitude 10° 18:52:22 10° 114° (ESE) 3,099 9.5 6.2°
Sets 18:55:47 0° 101° (E) 4,033 10.0 5.6°
